Location: Newark
(48.8604°N, 2.3376°E)
Time: 11:53:27
(UTC+00:00)

Envisat - Visible Passes

Search period start: 28 September 2021 00:00
Search period end: 08 October 2021 00:00
Orbit: 764 x 766 km, 98.2° (Epoch: 28 September)

Date Brightness Start Highest point End Pass type
(mag) Time Alt. Az. Time Alt. Az. Time Alt. Az.
28 Sep 5.9 03:48:12 10° NE 03:51:29 17° E 03:54:45 10° SE visible
29 Sep 3.8 04:49:10 10° NNE 04:54:11 56° E 04:59:10 10° S visible
30 Sep 5.2 04:12:45 10° NE 04:17:06 28° E 04:21:25 10° SSE visible
01 Oct 6.0 03:37:18 10° ENE 03:39:49 14° E 03:42:19 10° ESE visible
01 Oct 3.1 05:14:26 10° NNE 05:19:33 89° NW 05:24:39 10° SSW visible
02 Oct 4.2 04:37:44 10° NNE 04:42:37 45° E 04:47:28 10° S visible
03 Oct 5.5 04:01:30 10° NE 04:05:29 22° E 04:09:25 10° SE visible
04 Oct 6.3 03:27:00 10° ENE 03:28:07 11° E 03:29:13 10° E visible
04 Oct 3.3 05:02:55 10° NNE 05:08:02 74° ESE 05:13:06 10° S visible
05 Oct 4.7 04:26:20 10° NNE 04:31:02 36° E 04:35:42 10° SSE visible
06 Oct 5.8 03:50:21 10° NE 03:53:49 18° E 03:57:17 10° SE visible
07 Oct 3.7 04:51:26 10° NNE 04:56:30 60° E 05:01:30 10° S visible
07 Oct 6.8 17:54:02 10° W 17:54:51 10° W 17:55:41 10° WNW visible
